GW5357 Weather Reports


Display with metric or nautical units.
time (UTC)temp
F
wind
direction
speed
MPH
gust
MPH
rain 1hr
in
rain 24hr
in
rain mn
in
humidity
%
barometer
mb
20260904044001 54 331 1.0 2.0 0.00 0.00 0.00 82 1010.7
20260904043503 54 336 1.0 2.0 0.00 0.00 0.00 82 1010.7
20260904043003 54 296 1.0 2.0 0.00 0.00 0.00 81 1010.7
20260904042500 54 331 1.0 2.0 0.00 0.00 0.00 81 1010.7
20260904042002 55 340 1.0 2.0 0.00 0.00 0.00 81 1010.7
20260904041502 55 269 1.0 1.0 0.00 0.00 0.00 80 1010.7
20260904041003 55 269 0.0 1.0 0.00 0.00 0.00 80 1010.7
20260904040501 55 340 1.0 1.0 0.00 0.00 0.00 79 1010.8
20260904035502 56 314 1.0 2.0 0.00 0.00 0.00 78 1010.7
20260904035003 56 314 1.0 2.0 0.00 0.00 0.00 78 1010.9
20260904034503 56 314 0.0 2.0 0.00 0.00 0.00 77 1010.7
20260904033003 57 269 0.0 1.0 0.00 0.00 0.00 76 1010.6
20260904032501 58 1 0.0 2.0 0.00 0.00 0.00 75 1010.5
20260904032001 58 314 1.0 2.0 0.00 0.00 0.00 74 1010.5
20260904031503 58 331 1.0 2.0 0.00 0.00 0.00 74 1010.5
20260904030501 59 331 1.0 2.0 0.00 0.00 0.00 73 1010.3
20260904030006 59 331 1.0 2.0 0.00 0.00 0.00 72 1010.3
20260904025502 60 324 1.0 2.0 0.00 0.00 0.00 71 1010.3
20260904025003 60 336 2.0 2.0 0.00 0.00 0.00 70 1010.3
20260904024503 61 340 1.0 2.0 0.00 0.00 0.00 69 1010.2
20260904024003 61 303 1.0 3.0 0.00 0.00 0.00 68 1010.2
20260904023500 62 331 2.0 3.0 0.00 0.00 0.00 66 1010.2
20260904023003 63 331 1.0 2.0 0.00 0.00 0.00 65 1010.2
20260904021002 64 286 1.0 3.0 0.00 0.00 0.00 60 1010.0
20260904020003 65 89 1.0 4.0 0.00 0.00 0.00 59 1010.0
20260904015500 65 241 2.0 4.0 0.00 0.00 0.00 58 1010.0
20260904015002 65 1 1.0 4.0 0.00 0.00 0.00 58 1010.0
20260904014503 65 46 2.0 5.0 0.00 0.00 0.00 56 1010.0
20260904014003 66 295 1.0 5.0 0.00 0.00 0.00 57 1010.0
20260904013500 66 28 1.0 5.0 0.00 0.00 0.00 59 1009.9
20260904013003 66 254 1.0 8.0 0.00 0.00 0.00 59 1009.9
20260904012500 66 278 3.0 8.0 0.00 0.00 0.00 57 1009.9
20260904012002 67 15 2.0 6.0 0.00 0.00 0.00 56 1009.9
20260904010502 67 269 3.0 6.0 0.00 0.00 0.00 55 1009.8
20260904010003 68 135 1.0 7.0 0.00 0.01 0.00 55 1009.9
20260904005500 67 178 1.0 7.0 0.00 0.01 0.00 56 1009.9
20260904005003 67 192 2.0 7.0 0.00 0.01 0.00 55 1009.9
20260904004502 67 127 2.0 6.0 0.00 0.01 0.00 54 1009.8
20260904004002 68 178 2.0 8.0 0.00 0.01 0.00 54 1009.9
20260904003500 68 245 3.0 8.0 0.00 0.01 0.00 54 1009.8
20260904003003 67 1 2.0 5.0 0.00 0.01 0.00 56 1009.8
20260904002500 67 121 1.0 6.0 0.00 0.01 0.00 56 1009.8
20260904002001 67 178 3.0 7.0 0.00 0.01 0.00 55 1009.9
20260904001503 67 277 3.0 7.0 0.00 0.01 0.00 56 1009.8
20260904001002 67 178 1.0 6.0 0.00 0.01 0.00 54 1009.8
20260904000500 68 317 2.0 6.0 0.00 0.01 0.00 52 1009.8
20260904000002 69 129 2.0 6.0 0.00 0.01 0.00 53 1009.7
20260903235503 69 164 2.0 7.0 0.00 0.01 0.00 52 1009.7
20260903235003 69 178 3.0 7.0 0.00 0.01 0.00 52 1009.8
20260903234502 68 236 2.0 6.0 0.00 0.01 0.00 54 1009.8
20260903234003 67 20 3.0 6.0 0.00 0.01 0.00 55 1009.8
20260903233502 67 250 2.0 5.0 0.00 0.01 0.00 57 1009.8
20260903233003 67 161 2.0 5.0 0.00 0.01 0.00 57 1009.9
20260903232502 68 331 2.0 5.0 0.00 0.01 0.00 57 1009.8
20260903232002 67 15 2.0 5.0 0.00 0.01 0.00 56 1009.8
20260903231502 68 196 4.0 6.0 0.00 0.01 0.00 55 1009.9
20260903231002 69 8 3.0 6.0 0.00 0.01 0.00 54 1009.9
20260903230501 70 300 2.0 5.0 0.00 0.01 0.00 52 1009.9
20260903230002 70 182 3.0 6.0 0.00 0.01 0.00 52 1009.9
20260903225502 70 135 2.0 6.0 0.00 0.01 0.00 52 1009.9
20260903225003 70 156 2.0 7.0 0.00 0.01 0.00 53 1010.0
20260903224503 69 121 2.0 7.0 0.00 0.01 0.00 52 1009.9
20260903224003 69 228 3.0 7.0 0.00 0.01 0.00 52 1009.9
20260903223502 69 324 2.0 6.0 0.00 0.01 0.00 52 1010.0
20260903223002 69 141 2.0 8.0 0.00 0.01 0.00 53 1009.9
20260903222002 68 102 3.0 7.0 0.00 0.01 0.00 55 1010.1
20260903221502 67 178 3.0 4.0 0.00 0.01 0.00 55 1010.1
20260903221002 66 63 1.0 5.0 0.00 0.01 0.00 55 1010.3
20260903220501 66 108 1.0 5.0 0.00 0.01 0.00 57 1010.2
20260903220007 66 145 2.0 4.0 0.00 0.01 0.00 57 1010.3
20260903215500 66 310 2.0 3.0 0.00 0.01 0.00 58 1010.4
20260903215002 65 1 2.0 4.0 0.00 0.01 0.00 59 1010.4
20260903214503 66 28 2.0 4.0 0.00 0.01 0.00 59 1010.5
20260903214001 65 300 1.0 3.0 0.00 0.01 0.00 58 1010.4
20260903213501 65 1 1.0 4.0 0.00 0.01 0.00 58 1010.5
20260903213003 65 279 1.0 4.0 0.00 0.01 0.00 59 1010.5
20260903212500 65 331 1.0 4.0 0.00 0.01 0.00 59 1010.4
20260903212003 65 288 1.0 4.0 0.00 0.01 0.00 59 1010.4
20260903211502 65 303 1.0 4.0 0.00 0.01 0.00 60 1010.5
20260903211002 65 252 1.0 4.0 0.00 0.01 0.00 61 1010.4
20260903210500 64 324 2.0 6.0 0.00 0.01 0.00 60 1010.4
20260903205459 65 35 1.0 4.0 0.00 0.01 0.00 61 1010.3
20260903204959 64 327 2.0 6.0 0.00 0.01 0.00 60 1010.3
20260903203959 64 279 2.0 5.0 0.00 0.01 0.00 60 1010.3
20260903203459 64 296 2.0 5.0 0.00 0.01 0.00 59 1010.3
20260903203000 64 223 1.0 4.0 0.00 0.01 0.00 60 1010.2
20260903201503 65 223 2.0 7.0 0.00 0.01 0.00 58 1010.2
20260903200459 65 130 3.0 8.0 0.00 0.01 0.00 55 1010.1
20260903200003 65 98 4.0 7.0 0.00 0.01 0.00 55 1010.2
20260903195500 65 163 4.0 7.0 0.00 0.01 0.00 56 1010.1
20260903194502 64 113 2.0 6.0 0.00 0.01 0.00 59 1010.1
20260903194000 64 100 2.0 7.0 0.00 0.01 0.00 61 1010.1
20260903193500 63 283 3.0 7.0 0.00 0.01 0.00 60 1010.1
20260903193000 63 199 2.0 8.0 0.00 0.01 0.00 61 1010.1
20260903191959 63 89 4.0 7.0 0.00 0.01 0.00 61 1010.1
20260903191500 63 125 4.0 8.0 0.00 0.01 0.00 61 1010.1
20260903190501 63 129 3.0 8.0 0.00 0.01 0.00 61 1010.1
20260903185459 62 112 4.0 8.0 0.00 0.01 0.00 61 1010.1
20260903185000 62 135 3.0 9.0 0.00 0.01 0.00 62 1010.1
20260903184500 62 140 5.0 10.0 0.00 0.01 0.00 62 1010.0
20260903184000 62 125 5.0 9.0 0.00 0.01 0.00 61 1010.1
20260903183500 62 129 5.0 9.0 0.00 0.01 0.00 61 1010.0
20260903183001 62 148 4.0 10.0 0.00 0.01 0.00 61 1010.0
20260903182459 63 117 4.0 9.0 0.00 0.01 0.00 60 1009.9
20260903181500 63 145 4.0 11.0 0.00 0.01 0.00 60 1009.9
20260903181000 63 141 5.0 12.0 0.00 0.01 0.00 61 1009.8
20260903180502 63 138 6.0 12.0 0.00 0.01 0.00 60 1009.8
20260903180002 63 84 5.0 11.0 0.00 0.01 0.00 62 1009.8
20260903175458 62 154 5.0 11.0 0.00 0.01 0.00 62 1009.8
20260903175001 63 100 4.0 10.0 0.00 0.01 0.00 62 1009.8
20260903174501 63 1 4.0 9.0 0.00 0.01 0.00 62 1009.7
20260903173959 63 103 5.0 8.0 0.00 0.01 0.00 61 1009.6
20260903173459 63 98 4.0 9.0 0.00 0.01 0.00 61 1009.6
20260903173003 63 114 4.0 12.0 0.00 0.01 0.00 62 1009.5
20260903172459 63 185 5.0 12.0 0.00 0.01 0.00 63 1009.6
20260903171959 63 131 4.0 13.0 0.00 0.01 0.00 63 1009.6
20260903171500 63 137 6.0 12.0 0.00 0.01 0.00 63 1009.6
20260903171002 63 140 7.0 12.0 0.00 0.01 0.00 62 1009.5
20260903170002 62 142 3.0 11.0 0.00 0.01 0.00 64 1009.3
20260903165459 63 136 7.0 11.0 0.00 0.01 0.00 63 1009.4
20260903165001 63 127 6.0 11.0 0.00 0.01 0.00 62 1009.3
20260903164503 63 98 4.0 12.0 0.00 0.01 0.00 64 1009.4
20260903163459 61 89 4.0 10.0 0.00 0.01 0.00 66 1009.3
20260903163002 61 135 4.0 11.0 0.00 0.01 0.00 66 1009.3
20260903162500 62 133 6.0 10.0 0.00 0.01 0.00 65 1009.3
20260903162002 62 150 5.0 9.0 0.00 0.01 0.00 65 1009.3
20260903161502 61 138 4.0 8.0 0.00 0.01 0.00 66 1009.3
20260903161003 61 130 4.0 8.0 0.00 0.01 0.00 66 1009.2
20260903160500 61 72 4.0 9.0 0.00 0.01 0.00 66 1009.2
20260903160005 61 156 3.0 9.0 0.00 0.01 0.00 67 1009.3
20260903155459 61 126 3.0 11.0 0.00 0.01 0.00 67 1009.2
20260903154959 60 122 5.0 11.0 0.00 0.01 0.00 67 1009.1
20260903154500 60 135 4.0 7.0 0.00 0.01 0.00 68 1009.1
20260903153959 60 223 3.0 7.0 0.00 0.01 0.00 68 1009.0
20260903153500 60 115 3.0 7.0 0.00 0.01 0.00 68 1009.1
20260903153002 60 137 3.0 7.0 0.00 0.01 0.00 68 1009.1
20260903152459 60 155 3.0 7.0 0.00 0.01 0.00 68 1009.0
20260903151959 60 98 2.0 5.0 0.00 0.01 0.00 68 1009.0
20260903150959 60 150 4.0 7.0 0.00 0.01 0.00 68 1008.9
20260903150003 60 128 3.0 5.0 0.00 0.01 0.00 68 1008.9
20260903145502 60 89 3.0 6.0 0.00 0.01 0.00 68 1008.9
20260903145000 60 115 3.0 7.0 0.00 0.01 0.00 68 1008.9
20260903144501 60 105 3.0 7.0 0.00 0.01 0.00 69 1008.9
20260903144000 60 131 2.0 6.0 0.00 0.01 0.00 68 1008.8
20260903143459 60 96 3.0 6.0 0.00 0.01 0.00 68 1008.9
20260903142500 60 89 1.0 4.0 0.00 0.01 0.00 68 1008.6
20260903141959 60 117 2.0 5.0 0.00 0.01 0.00 68 1008.7
20260903141502 60 135 3.0 5.0 0.00 0.01 0.00 68 1008.6
20260903140959 60 120 2.0 6.0 0.00 0.01 0.00 68 1008.7
20260903140459 60 139 2.0 6.0 0.00 0.01 0.00 68 1008.6
20260903140004 60 138 3.0 6.0 0.00 0.01 0.00 68 1008.6
20260903135501 60 314 3.0 9.0 0.00 0.01 0.00 68 1008.5
20260903135002 59 130 4.0 9.0 0.00 0.01 0.00 68 1008.4
20260903134500 59 138 3.0 5.0 0.00 0.01 0.00 67 1008.3
20260903133002 59 131 4.0 7.0 0.00 0.01 0.00 67 1008.2
20260903132501 59 117 2.0 6.0 0.00 0.01 0.00 68 1008.1
20260903131959 59 135 2.0 7.0 0.00 0.01 0.00 68 1008.1
20260903131500 59 107 3.0 7.0 0.00 0.01 0.00 68 1008.1
20260903131000 59 110 3.0 6.0 0.00 0.01 0.00 69 1008.0
20260903130002 58 120 2.0 5.0 0.00 0.01 0.00 70 1007.9
20260903125458 58 174 2.0 4.0 0.00 0.01 0.00 70 1007.9
20260903125000 58 105 2.0 5.0 0.00 0.01 0.00 70 1007.8
20260903124459 58 140 2.0 5.0 0.00 0.01 0.00 70 1007.8
20260903124000 59 108 2.0 5.0 0.00 0.01 0.00 70 1007.9
20260903122959 59 197 1.0 6.0 0.00 0.01 0.00 70 1007.8
20260903122458 59 89 1.0 8.0 0.00 0.01 0.00 69 1007.9
20260903121958 59 81 3.0 8.0 0.00 0.01 0.00 69 1007.8
20260903121458 59 132 3.0 6.0 0.00 0.01 0.00 69 1007.8
20260903120958 59 139 2.0 9.0 0.00 0.01 0.00 69 1007.8
20260903120002 59 115 2.0 8.0 0.00 0.01 0.00 69 1007.8
20260903115458 59 120 2.0 5.0 0.00 0.01 0.00 69 1007.7
20260903114958 59 124 1.0 6.0 0.00 0.01 0.00 69 1007.7
20260903114458 59 131 4.0 6.0 0.00 0.01 0.00 69 1007.7
20260903114000 59 129 2.0 6.0 0.00 0.01 0.00 69 1007.6
20260903112959 59 102 2.0 6.0 0.00 0.01 0.00 70 1007.6
20260903112002 59 115 2.0 5.0 0.00 0.01 0.00 69 1007.5
20260903111459 59 124 1.0 4.0 0.00 0.01 0.00 69 1007.5
20260903110500 59 138 3.0 7.0 0.00 0.01 0.00 68 1007.5
20260903110003 59 115 1.0 8.0 0.00 0.01 0.00 68 1007.5
20260903105458 59 94 4.0 8.0 0.00 0.01 0.00 68 1007.5
20260903104958 60 63 1.0 6.0 0.00 0.01 0.00 68 1007.5
20260903104458 60 105 3.0 8.0 0.00 0.01 0.00 67 1007.5
20260903103958 60 89 4.0 9.0 0.00 0.01 0.00 67 1007.4
20260903103459 60 130 5.0 9.0 0.00 0.01 0.00 67 1007.3
20260903103000 60 133 5.0 9.0 0.00 0.01 0.00 67 1007.4
20260903102001 60 117 3.0 9.0 0.00 0.01 0.00 67 1007.2
20260903101500 60 131 3.0 11.0 0.00 0.01 0.00 67 1007.1
20260903101000 60 159 3.0 11.0 0.00 0.01 0.00 67 1007.1
20260903100500 60 148 5.0 10.0 0.00 0.01 0.00 67 1007.0
20260903095459 60 122 5.0 11.0 0.00 0.01 0.00 67 1007.1
20260903094958 60 113 3.0 8.0 0.00 0.01 0.00 68 1007.0
20260903094459 59 144 3.0 7.0 0.00 0.01 0.00 67 1006.9
20260903093957 59 117 3.0 7.0 0.00 0.01 0.00 68 1006.9
20260903093458 59 115 2.0 5.0 0.00 0.01 0.00 69 1006.9
20260903093000 59 135 2.0 4.0 0.00 0.01 0.00 68 1007.0
20260903092459 59 117 2.0 4.0 0.00 0.01 0.00 68 1006.9
20260903091958 59 172 2.0 5.0 0.00 0.01 0.00 68 1007.0
20260903090959 60 187 3.0 7.0 0.00 0.01 0.00 67 1006.9
20260903090458 60 46 3.0 7.0 0.00 0.01 0.00 67 1006.9
20260903085458 60 108 2.0 9.0 0.00 0.01 0.00 67 1007.0
20260903084959 60 102 2.0 9.0 0.00 0.01 0.00 67 1007.0
20260903084458 60 81 3.0 8.0 0.00 0.01 0.00 67 1007.0
20260903083958 60 114 4.0 6.0 0.00 0.01 0.00 68 1007.1
20260903083459 60 138 3.0 4.0 0.00 0.01 0.00 68 1007.1
20260903082959 60 107 1.0 4.0 0.00 0.01 0.00 68 1007.0
20260903082458 60 197 2.0 5.0 0.00 0.01 0.00 68 1007.1
20260903081959 60 147 3.0 5.0 0.00 0.01 0.00 68 1007.0
20260903081459 60 35 2.0 8.0 0.00 0.01 0.00 68 1007.0
20260903081001 60 122 5.0 8.0 0.00 0.01 0.00 68 1007.0
20260903080458 60 124 4.0 8.0 0.00 0.01 0.00 69 1007.1
20260903080004 60 127 2.0 10.0 0.00 0.01 0.00 69 1007.0
20260903075459 60 114 3.0 10.0 0.00 0.01 0.00 69 1007.0
20260903074959 60 135 3.0 6.0 0.00 0.01 0.00 69 1007.0
20260903074500 60 126 2.0 13.0 0.00 0.01 0.00 69 1007.0
20260903073959 60 156 6.0 14.0 0.00 0.01 0.00 69 1006.9
20260903073459 60 89 8.0 14.0 0.00 0.01 0.00 69 1006.9
20260903072959 60 138 5.0 15.0 0.00 0.01 0.00 70 1006.8
20260903072500 60 221 4.0 15.0 0.00 0.01 0.00 70 1006.8
20260903071003 60 108 7.0 15.0 0.00 0.01 0.00 70 1006.3
20260903070502 60 195 6.0 13.0 0.00 0.01 0.00 70 1006.3
20260903070003 60 165 7.0 13.0 0.00 0.01 0.01 70 1006.4
20260903065503 60 204 3.0 12.0 0.00 0.01 0.01 70 1006.4
20260903065003 60 108 5.0 12.0 0.00 0.01 0.01 71 1006.5
20260903064503 60 124 6.0 12.0 0.00 0.01 0.01 71 1006.5
20260903064003 60 174 3.0 7.0 0.00 0.01 0.01 71 1006.5
20260903063503 60 142 3.0 9.0 0.00 0.01 0.01 71 1006.5
20260903063004 60 115 4.0 11.0 0.00 0.01 0.01 71 1006.6
20260903062502 60 145 5.0 11.0 0.00 0.01 0.01 71 1006.6
20260903062003 60 110 4.0 9.0 0.00 0.01 0.01 71 1006.5
20260903061503 60 130 5.0 9.0 0.00 0.01 0.01 71 1006.5
20260903060502 60 79 3.0 13.0 0.00 0.01 0.01 71 1006.8
20260903060008 60 150 6.0 13.0 0.00 0.01 0.01 71 1006.7
20260903055502 60 131 5.0 13.0 0.00 0.01 0.01 71 1006.7
20260903055003 60 131 4.0 11.0 0.00 0.01 0.01 71 1006.6
20260903054502 61 130 5.0 11.0 0.00 0.01 0.01 72 1006.7
20260903054002 61 129 5.0 15.0 0.00 0.01 0.01 72 1006.7
20260903053502 60 194 8.0 15.0 0.00 0.01 0.01 72 1006.9
20260903053005 60 89 3.0 8.0 0.00 0.01 0.01 72 1006.8
20260903052502 60 89 2.0 8.0 0.00 0.01 0.01 72 1006.7
20260903051504 60 269 1.0 10.0 0.00 0.01 0.01 72 1006.3
20260903051003 60 133 4.0 8.0 0.00 0.01 0.01 72 1006.4
20260903050502 60 122 4.0 9.0 0.00 0.01 0.01 72 1006.3
20260903050006 60 165 5.0 14.0 0.00 0.01 0.01 72 1006.3
20260903045502 61 141 7.0 14.0 0.00 0.01 0.01 72 1006.4
20260903045002 60 133 2.0 12.0 0.00 0.01 0.01 72 1006.3
20260903044502 61 121 3.0 12.0 0.00 0.01 0.01 72 1006.2